sat.trackr.live / text

‹ back to catalog

HULIANWANG DIGUI-149

NORAD 67525 · 2026-013D

PAYLOAD ACTIVE UNKNOWN

§ Identity

Operator
Country
PRC
Launch date
2026-01-19
Launch site
WSC
Launch vehicle
Mass (kg)
RCS (m²)

External: N2YO · Heavens-Above · Gunter

§ Orbital elements

Epoch: 2026-05-25T03:05:52.084320Z

Period
108.33 min
Inclination
50.0086°
Eccentricity
0.0001074
Mean motion
13.29327299 rev/d
Perigee alt
1,148.5 km
Apogee alt
1,150.1 km
Semi-major
7,527.4 km
B*
6.0722e-5
RAAN
78.3728°
Arg perigee
33.8205°
Mean anomaly
326.2735°
Rev number
1,698

§ Raw data

HULIANWANG DIGUI-1491 67525U 26013D   26145.12907505 -.00000096  00000+0  60722-4 0  99902 67525  50.0086  78.3728 0001074  33.8205 326.2735 13.29327299 16983

JSON: /api/v1/satellites/67525 · /tle

For live sub-satellite position, see the globe view (requires WebGL).

§ Visibility from observer

Set your observer location to see the next 7 days of passes ≥ 10°. The values pass through the URL so the page stays shareable.

No JS? Fill the form by hand. The geolocation button needs JavaScript.